| time (UTC) | temp C | wind direction | speed KPH | gust KPH | rain 1hr cm | rain 24hr cm | rain mn cm | humidity % | barometer mb |
| 20260503053002 | 14 | 221 | 1.6 | 6.4 | 0.00 | 0.00 | 0.00 | 38 | 1009.9 |
| 20260503051502 | 13 | 235 | 0.0 | 6.4 | 0.00 | 0.00 | 0.00 | 39 | 1010.1 |
| 20260503044503 | 13 | 233 | 0.0 | 3.2 | 0.00 | 0.00 | 0.00 | 39 | 1009.9 |
| 20260503043115 | 14 | 233 | 0.0 | 3.2 | 0.00 | 0.00 | 0.00 | 38 | 1009.6 |
| 20260503041603 | 15 | 233 | 0.0 | 1.6 | 0.00 | 0.00 | 0.00 | 38 | 1009.6 |
| 20260503040002 | 15 | 232 | 0.0 | 0.0 | 0.00 | 0.00 | 0.00 | 35 | 1009.9 |
| 20260503034603 | 16 | 233 | 0.0 | 3.2 | 0.00 | 0.00 | 0.00 | 34 | 1009.8 |
| 20260503033002 | 17 | 232 | 0.0 | 1.6 | 0.00 | 0.00 | 0.00 | 33 | 1009.7 |
| 20260503031505 | 17 | 232 | 0.0 | 1.6 | 0.00 | 0.00 | 0.00 | 32 | 1009.4 |
| 20260503030114 | 18 | 232 | 0.0 | 1.6 | 0.00 | 0.00 | 0.00 | 31 | 1009.4 |
| 20260503024503 | 19 | 232 | 0.0 | 1.6 | 0.00 | 0.00 | 0.00 | 29 | 1009.5 |
| 20260503023115 | 19 | 232 | 0.0 | 3.2 | 0.00 | 0.00 | 0.00 | 27 | 1009.5 |
| 20260503021606 | 20 | 255 | 0.0 | 3.2 | 0.00 | 0.00 | 0.00 | 27 | 1009.6 |
| 20260503020003 | 20 | 236 | 0.0 | 8.0 | 0.00 | 0.00 | 0.00 | 26 | 1009.7 |
| 20260503014605 | 20 | 273 | 1.6 | 8.0 | 0.00 | 0.00 | 0.00 | 25 | 1009.6 |
| 20260503013009 | 21 | 250 | 3.2 | 11.3 | 0.00 | 0.00 | 0.00 | 24 | 1009.9 |
| 20260503011503 | 21 | 264 | 1.6 | 11.3 | 0.00 | 0.00 | 0.00 | 25 | 1010.0 |
| 20260503004503 | 22 | 241 | 6.4 | 12.9 | 0.00 | 0.00 | 0.00 | 25 | 1010.0 |
| 20260503003102 | 22 | 236 | 6.4 | 12.9 | 0.00 | 0.00 | 0.00 | 25 | 1010.4 |
| 20260503001604 | 22 | 276 | 6.4 | 16.1 | 0.00 | 0.00 | 0.00 | 25 | 1010.6 |
| 20260503000009 | 23 | 283 | 3.2 | 9.7 | 0.00 | 0.00 | 0.00 | 25 | 1010.9 |
| 20260502233003 | 24 | 273 | 4.8 | 11.3 | 0.00 | 0.00 | 0.00 | 26 | 1011.3 |
| 20260502231503 | 23 | 294 | 3.2 | 17.7 | 0.00 | 0.00 | 0.00 | 27 | 1011.5 |
| 20260502224506 | 23 | 207 | 4.8 | 14.5 | 0.00 | 0.00 | 0.00 | 26 | 1012.2 |
| 20260502223104 | 23 | 234 | 3.2 | 20.9 | 0.00 | 0.00 | 0.00 | 26 | 1012.5 |
| 20260502221605 | 23 | 207 | 4.8 | 12.9 | 0.00 | 0.00 | 0.00 | 27 | 1012.8 |
| 20260502220002 | 23 | 190 | 6.4 | 12.9 | 0.00 | 0.00 | 0.00 | 26 | 1013.2 |
| 20260502214609 | 23 | 183 | 6.4 | 14.5 | 0.00 | 0.00 | 0.00 | 27 | 1013.5 |
| 20260502213003 | 22 | 185 | 3.2 | 16.1 | 0.00 | 0.00 | 0.00 | 26 | 1013.7 |
| 20260502211508 | 22 | 343 | 3.2 | 8.0 | 0.00 | 0.00 | 0.00 | 28 | 1013.9 |
| 20260502210110 | 22 | 248 | 4.8 | 12.9 | 0.00 | 0.00 | 0.00 | 28 | 1014.4 |
| 20260502204503 | 22 | 255 | 3.2 | 11.3 | 0.00 | 0.00 | 0.00 | 27 | 1014.6 |
| 20260502203113 | 22 | 205 | 3.2 | 14.5 | 0.00 | 0.00 | 0.00 | 27 | 1014.8 |
| 20260502201602 | 22 | 221 | 3.2 | 14.5 | 0.00 | 0.00 | 0.00 | 27 | 1015.2 |
| 20260502200003 | 22 | 180 | 4.8 | 11.3 | 0.00 | 0.00 | 0.00 | 29 | 1015.3 |
| 20260502194602 | 21 | 266 | 4.8 | 12.9 | 0.00 | 0.00 | 0.00 | 28 | 1015.6 |
| 20260502193004 | 21 | 183 | 6.4 | 14.5 | 0.00 | 0.00 | 0.00 | 28 | 1016.1 |
| 20260502191502 | 20 | 180 | 1.6 | 11.3 | 0.00 | 0.00 | 0.00 | 31 | 1016.1 |
| 20260502190104 | 20 | 290 | 1.6 | 9.7 | 0.00 | 0.00 | 0.00 | 31 | 1016.5 |
| 20260502184503 | 20 | 173 | 4.8 | 11.3 | 0.00 | 0.00 | 0.00 | 30 | 1016.6 |
| 20260502183103 | 20 | 186 | 6.4 | 16.1 | 0.00 | 0.00 | 0.00 | 31 | 1016.8 |
| 20260502181602 | 19 | 200 | 6.4 | 12.9 | 0.00 | 0.00 | 0.00 | 32 | 1017.0 |
| 20260502163105 | 16 | 267 | 3.2 | 9.7 | 0.00 | 0.00 | 0.00 | 38 | 1018.4 |
| 20260502161603 | 16 | 187 | 4.8 | 12.9 | 0.00 | 0.00 | 0.00 | 41 | 1018.5 |
| 20260502151504 | 13 | 206 | 1.6 | 9.7 | 0.00 | 0.00 | 0.00 | 51 | 1019.1 |
| 20260502150116 | 12 | 229 | 1.6 | 8.0 | 0.00 | 0.00 | 0.00 | 53 | 1019.3 |
| 20260502123111 | 3 | 282 | 0.0 | 1.6 | 0.00 | 0.00 | 0.00 | 76 | 1019.3 |
| 20260502121604 | 3 | 282 | 0.0 | 3.2 | 0.00 | 0.00 | 0.00 | 76 | 1019.0 |
| 20260502114604 | 3 | 282 | 0.0 | 3.2 | 0.00 | 0.00 | 0.00 | 77 | 1018.9 |
| 20260502113003 | 3 | 282 | 0.0 | 3.2 | 0.00 | 0.00 | 0.00 | 77 | 1018.8 |
| 20260502111503 | 3 | 282 | 0.0 | 1.6 | 0.00 | 0.00 | 0.00 | 77 | 1018.8 |
| 20260502110104 | 3 | 282 | 0.0 | 3.2 | 0.00 | 0.00 | 0.00 | 77 | 1018.9 |
| 20260502104511 | 3 | 290 | 0.0 | 0.0 | 0.00 | 0.00 | 0.00 | 76 | 1018.8 |
| 20260502103114 | 3 | 290 | 0.0 | 3.2 | 0.00 | 0.00 | 0.00 | 75 | 1018.8 |
| 20260502101603 | 4 | 290 | 0.0 | 3.2 | 0.00 | 0.00 | 0.00 | 75 | 1018.8 |
| 20260502070006 | 6 | 11 | 0.0 | 0.0 | 0.00 | 0.00 | 0.00 | 72 | 1018.3 |
| 20260502064610 | 6 | 11 | 0.0 | 0.0 | 0.00 | 0.00 | 0.00 | 72 | 1018.2 |
| 20260502063042 | 6 | 11 | 0.0 | 0.0 | 0.00 | 0.00 | 0.00 | 71 | 1018.1 |
| 20260502061605 | 6 | 11 | 0.0 | 1.6 | 0.00 | 0.00 | 0.00 | 70 | 1017.9 |
| 20260502060003 | 7 | 11 | 0.0 | 0.0 | 0.00 | 0.00 | 0.00 | 68 | 1017.9 |
| 20260502054605 | 7 | 11 | 0.0 | 0.0 | 0.00 | 0.00 | 0.00 | 67 | 1017.8 |